Погода в Хийденсельге

Россия / Республика Карелия     61°42′47″N   30°59′02″E
темп.,
°C
ветер,
м/с
пор.,
м/с
влажн.,
%
обл.,
%
осадки,
мм/ч
давл.,
гПа
погр.,
м
15 апреля, чт
чт1500:00−1зсз119079 0.0 102611
03:00−1ссз22885 0.0 102745
06:00−1с23895 0.0 102970
09:00+3с23705 0.0 1030398
12:00+6ссв23490 0.0 10311066
15:00+8св23430 0.0 10311153
18:00+7св24521 0.0 1031693
21:00+3св22720 0.0 103116
16 апреля, пт
пт1600:00+1св22790 0.0 103231
03:000св22820 0.0 103330
06:000св25812 0.0 103388
09:00+5всв35600 0.0 1034328
12:00+8всв35461 0.0 1034859
15:00+10всв35435 0.0 10331086
18:00+9всв36545 0.0 1033876
21:00+5всв28775 0.0 1034146
17 апреля, сб
сб1700:00+3всв28845 0.0 1035159
03:00+2всв27873 0.0 1035133
06:00+1св27890 0.0 1036118
09:00+6всв35680 0.0 1036287
12:00+9всв23510 0.0 1036839
15:00+11в23410 0.0 10341154
18:00+11всв23450 0.0 10331121
21:00+6св22650 0.0 103423
18 апреля, вс
вс1800:00+4в22720 0.0 103516
03:00+3всв11720 0.0 103512
06:00+2всв21725 0.0 103512
09:00+6в12585 0.0 1035207
12:00+10ююв12493 0.0 1035763
15:00+11ююз22445 0.0 10341071
18:00+11юз12465 0.0 1033670
21:00+6сз11635 0.0 103310
19 апреля, пн
пн1900:00+5всв11695 0.0 103411
03:00+4вюв11795 0.0 103414
06:00+3в22815 0.0 103421
09:00+7вюв24647 0.0 1033273
12:00+10ююв245210 0.0 1033859
15:00+11ю345210 0.0 1032802
18:00+10юв14545 0.0 1031337
21:00+7в116911 0.0 103011